Deering, AK

1:39 AM AKST on February 28, 2017 (GMT -0900)
Deering (New)

Weather History for PADE - September, 2012

Change the Weather History Date:

Thursday, September 27, 2012

  Actual Average (PAOT) Record (PAOT)
Temperature  
Mean Temperature 36 °F -  
Max Temperature 39 °F 40 °F 55 °F (1966)
Min Temperature 34 °F 31 °F 17 °F (1992)
Degree Days  
Heating Degree Days 30    
Moisture  
Dew Point 26 °F    
Average Humidity 68    
Maximum Humidity 76    
Minimum Humidity 59    
Precipitation  
Precipitation 0.00 in - - ()
Sea Level Pressure  
Sea Level Pressure 29.34 in    
Wind  
Wind Speed 29 mph (NW)    
Max Wind Speed 33 mph    
Max Gust Speed 44 mph    
Visibility 10 miles    
Events      
Averages and records for this station are not official NWS values.
T = Trace of Precipitation, MM = Missing Value Source: NWS Daily Summary

Daily Weather History Graph

Daily Weather History Graph

Search for Another Location

Airport or City:

Trip Planner

Search our weather history database for the weather conditions in past years. The results will help you decide how hot, cold, wet, or windy it might be!

Date:

Astronomy

Sep. 27, 2012 Rise Set
Actual Time 8:51 AM AKDT 8:30 PM AKDT
Civil Twilight 8:00 AM AKDT 9:21 PM AKDT
Nautical Twilight 6:58 AM AKDT 10:22 PM AKDT
Astronomical Twilight 5:48 AM AKDT 11:31 PM AKDT
Moon 7:31 PM AKDT (9/27) 5:54 AM AKDT (9/27)
Length of Visible Light 13h 21m
Length of Day
11h 38m
Waxing Gibbous, 94% of the Moon is Illuminated
Sep 27
Waxing Gibbous
Sep 29
Full
Oct 7
Last Quarter
Oct 15
New
Oct 21
First Quarter

Hourly Weather History & Observations

Time (AKDT) Temp. Windchill Dew Point Humidity Pressure Visibility Wind Dir Wind Speed Gust Speed Precip Events Conditions
12:06 AM 37.4 °F 26.4 °F 28.4 °F 70% 29.38 in 10.0 mi NNW 23.0 mph 33.4 mph N/A   Scattered Clouds
12:31 AM 37.4 °F 25.6 °F 30.2 °F 75% 29.37 in 10.0 mi NNW 26.5 mph 34.5 mph N/A   Mostly Cloudy
12:53 AM 37.0 °F 26.2 °F 30.0 °F 76% 29.36 in 10.0 mi NNW 21.9 mph 32.2 mph N/A   Mostly Cloudy
1:53 AM 37.0 °F 24.7 °F 30.0 °F 76% 29.35 in 10.0 mi NW 28.8 mph 36.8 mph N/A   Overcast
2:53 AM 37.0 °F 23.9 °F 28.9 °F 73% 29.34 in 10.0 mi NW 33.4 mph 43.7 mph N/A   Overcast
3:04 AM 37.4 °F 24.4 °F 28.4 °F 70% 29.33 in 10.0 mi NW 33.4 mph 43.7 mph N/A   Overcast
3:37 AM 35.6 °F 21.9 °F 28.4 °F 75% 29.33 in 10.0 mi NW 33.4 mph 43.7 mph N/A   Overcast
4:13 AM 35.6 °F 21.9 °F 26.6 °F 70% 29.32 in 10.0 mi NW 33.4 mph 43.7 mph N/A   Overcast
4:53 AM 35.1 °F 21.4 °F 26.1 °F 70% 29.32 in 10.0 mi NW 32.2 mph 43.7 mph N/A   Partly Cloudy
5:53 AM 34.0 °F 20.1 °F 25.0 °F 70% 29.32 in 10.0 mi NW 31.1 mph 40.3 mph N/A   Partly Cloudy
6:53 AM 34.0 °F 19.9 °F 21.9 °F 61% 29.31 in 10.0 mi NW 32.2 mph 42.6 mph N/A   Partly Cloudy
7:53 AM 34.0 °F 20.1 °F 24.1 °F 67% 29.31 in 10.0 mi NW 31.1 mph 39.1 mph N/A   Partly Cloudy
8:53 AM 34.0 °F 19.7 °F 24.1 °F 67% 29.30 in 10.0 mi NW 33.4 mph 41.4 mph N/A   Clear
9:53 AM 35.1 °F 23.0 °F 23.0 °F 61% 29.31 in 10.0 mi NNW 24.2 mph 39.1 mph N/A   Clear
10:53 AM 36.0 °F 22.8 °F 23.0 °F 59% 29.31 in 10.0 mi NW 31.1 mph 41.4 mph N/A   Clear
11:53 AM 37.0 °F 24.3 °F 25.0 °F 62% 29.31 in 10.0 mi NW 31.1 mph 40.3 mph N/A   Partly Cloudy
12:22 PM 35.6 °F 23.0 °F 26.6 °F 70% 29.32 in 10.0 mi NW 27.6 mph 40.3 mph N/A   Mostly Cloudy
12:37 PM 37.4 °F 24.6 °F 26.6 °F 65% 29.32 in 10.0 mi NW 32.2 mph 40.3 mph N/A   Mostly Cloudy
12:53 PM 37.0 °F 24.3 °F 25.0 °F 62% 29.32 in 10.0 mi NNW 31.1 mph 41.4 mph N/A   Mostly Cloudy
1:53 PM 37.0 °F 24.1 °F 27.0 °F 67% 29.33 in 10.0 mi NW 32.2 mph 41.4 mph N/A   Scattered Clouds
2:04 PM 37.4 °F 24.8 °F 26.6 °F 65% 29.32 in 10.0 mi NW 31.1 mph 39.1 mph N/A   Mostly Cloudy
2:37 PM 37.4 °F 24.4 °F 26.6 °F 65% 29.33 in 10.0 mi NW 33.4 mph 42.6 mph N/A   Scattered Clouds
2:53 PM 37.9 °F 25.3 °F 28.0 °F 68% 29.33 in 10.0 mi NW 32.2 mph 41.4 mph N/A   Partly Cloudy
3:53 PM 37.9 °F 25.5 °F 27.0 °F 65% 29.33 in 10.0 mi NW 31.1 mph 42.6 mph N/A   Partly Cloudy
4:53 PM 36.0 °F 22.4 °F 26.1 °F 67% 29.34 in 10.0 mi NW 33.4 mph 39.1 mph N/A   Mostly Cloudy
5:41 PM 37.4 °F 25.2 °F 26.6 °F 65% 29.33 in 10.0 mi NW 28.8 mph 40.3 mph N/A   Mostly Cloudy
5:53 PM 37.0 °F 24.1 °F 26.1 °F 65% 29.34 in 10.0 mi NW 32.2 mph 41.4 mph N/A   Mostly Cloudy
6:14 PM 35.6 °F 22.5 °F 24.8 °F 65% 29.34 in 10.0 mi NW 29.9 mph 40.3 mph N/A   Partly Cloudy
6:53 PM 36.0 °F 23.2 °F 26.1 °F 67% 29.34 in 10.0 mi NW 28.8 mph 35.7 mph N/A   Mostly Cloudy
7:53 PM 36.0 °F 23.7 °F 27.0 °F 70% 29.34 in 10.0 mi NW 26.5 mph 40.3 mph N/A   Overcast
8:25 PM 35.6 °F 22.7 °F 26.6 °F 70% 29.34 in 10.0 mi NW 28.8 mph 35.7 mph N/A   Mostly Cloudy
8:48 PM 35.6 °F 23.0 °F 26.6 °F 70% 29.34 in 10.0 mi NW 27.6 mph 36.8 mph N/A   Mostly Cloudy
8:53 PM 36.0 °F 23.7 °F 27.0 °F 70% 29.35 in 10.0 mi NW 26.5 mph 34.5 mph N/A   Mostly Cloudy
9:11 PM 35.6 °F 23.2 °F 26.6 °F 70% 29.34 in 10.0 mi NW 26.5 mph 36.8 mph N/A   Mostly Cloudy
9:53 PM 36.0 °F 23.7 °F 27.0 °F 70% 29.35 in 10.0 mi NW 26.5 mph 33.4 mph N/A   Mostly Cloudy
10:06 PM 35.6 °F 23.0 °F 26.6 °F 70% 29.35 in 10.0 mi NW 27.6 mph 35.7 mph N/A   Mostly Cloudy
10:16 PM 35.6 °F 23.4 °F 26.6 °F 70% 29.35 in 10.0 mi NW 25.3 mph 33.4 mph N/A   Mostly Cloudy
10:24 PM 35.6 °F 23.2 °F 26.6 °F 70% 29.35 in 10.0 mi NW 26.5 mph 33.4 mph N/A   Mostly Cloudy
10:50 PM 35.6 °F 23.7 °F 26.6 °F 70% 29.35 in 10.0 mi NW 24.2 mph 35.7 mph N/A   Mostly Cloudy
10:53 PM 36.0 °F 24.2 °F 26.1 °F 67% 29.35 in 10.0 mi NW 24.2 mph 32.2 mph N/A   Mostly Cloudy
11:38 PM 35.6 °F 23.4 °F 26.6 °F 70% 29.35 in 10.0 mi NW 25.3 mph 34.5 mph N/A   Scattered Clouds
11:53 PM 35.1 °F 23.3 °F 26.1 °F 70% 29.36 in 10.0 mi NW 23.0 mph 33.4 mph N/A   Partly Cloudy